2001 VF16 

Epoch 2001 Nov. 7.0 TT = JDT 2452220.5                  Nakano

M 154.29511              (2000.0)            P               Q

n   0.59923795     Peri.  328.28730     -0.43028278     +0.88846932

a   1.3933809      Node   275.79640     -0.79103540     -0.45630516

e   0.0652339      Incl.    9.23254     -0.43487898     -0.04907000

P   1.64           H   18.4           G   0.15           U   *

Residuals in seconds of arc 

011111 704  0.0   0.6+    011113 704  0.1-  0.3+    011113 557  0.4-  0.4-  

011111 704  0.5-  0.0     011113 704  0.2+  0.9-    011116 402  0.4-  0.2+  

011111 704  1.1+  0.3+    011113 704  0.1+  0.8-    011116 402  0.0   1.1-  

011111 704  0.4-  0.7-    011113 557  0.6+  0.1+    011116 402  0.4+  0.9+  

011111 704  0.5-  0.2-    011113 557  0.2+  0.3+                            

011113 704  0.4+  1.1+    011113 557  0.8-  0.1+                            

  

NAKANO

         **** Don't distribute anyone except personal use only ****

                (C) Copyright 2001 OAA/ComputingSection

write mail from CFAD0::NAKANO on 2001-11-18 01:01:51(JST).

 



–ß‚è‚Ü‚·B